TimeCST,TemperatureF,Dew PointF,Humidity,Sea Level PressureIn,VisibilityMPH,Wind Direction,Wind SpeedMPH,Gust SpeedMPH,PrecipitationIn,Events,Conditions,WindDirDegrees,DateUTC
12:15 AM,31.1,31.1,100,29.85,1.2,NW,3.5,-,N/A,Snow,Light Snow,320,2012-12-29 06:15:00
12:35 AM,31.1,31.1,100,29.86,1.0,NW,3.5,-,0.02,Snow,Light Snow,320,2012-12-29 06:35:00
12:55 AM,31.1,31.1,100,29.86,1.0,Calm,Calm,-,0.03,Snow,Light Snow,0,2012-12-29 06:55:00
1:15 AM,31.1,31.1,100,29.86,1.2,Calm,Calm,-,N/A,Snow,Light Snow,0,2012-12-29 07:15:00
1:35 AM,31.1,31.1,100,29.86,1.5,Calm,Calm,-,0.01,Snow,Light Snow,0,2012-12-29 07:35:00
1:55 AM,31.1,31.1,100,29.87,1.8,Calm,Calm,-,0.01,Snow,Light Snow,0,2012-12-29 07:55:00
2:15 AM,31.1,31.1,100,29.88,2.0,Calm,Calm,-,N/A,Snow,Light Snow,0,2012-12-29 08:15:00
2:35 AM,31.1,31.1,100,29.89,2.0,Calm,Calm,-,N/A,Snow,Light Snow,0,2012-12-29 08:35:00
2:55 AM,31.3,31.3,100,29.89,2.5,Calm,Calm,-,N/A,Snow,Light Snow,0,2012-12-29 08:55:00
3:15 AM,31.1,31.1,100,29.89,4.0,Calm,Calm,-,N/A,Snow,Light Snow,0,2012-12-29 09:15:00
3:35 AM,31.1,31.1,100,29.90,5.0,NW,3.5,-,N/A,,Overcast,310,2012-12-29 09:35:00
3:55 AM,31.1,31.1,100,29.90,5.0,WNW,4.6,-,N/A,,Overcast,300,2012-12-29 09:55:00
4:15 AM,31.1,30.9,99,29.90,5.0,NW,3.5,-,N/A,,Overcast,310,2012-12-29 10:15:00
4:35 AM,30.9,30.7,99,29.91,5.0,NW,3.5,-,N/A,,Overcast,310,2012-12-29 10:35:00
4:55 AM,30.9,30.6,99,29.92,5.0,NW,3.5,-,N/A,,Overcast,310,2012-12-29 10:55:00
5:15 AM,30.9,30.6,99,29.92,5.0,WNW,3.5,-,N/A,,Overcast,300,2012-12-29 11:15:00
5:35 AM,30.9,30.2,97,29.93,5.0,WNW,5.8,-,N/A,,Overcast,300,2012-12-29 11:35:00
5:55 AM,30.9,30.0,96,29.94,7.0,Calm,Calm,-,N/A,,Overcast,0,2012-12-29 11:55:00
6:15 AM,30.9,29.8,96,29.95,7.0,Calm,Calm,-,N/A,,Overcast,0,2012-12-29 12:15:00
6:35 AM,30.9,29.8,96,29.96,7.0,WNW,3.5,-,N/A,,Overcast,300,2012-12-29 12:35:00
6:55 AM,30.7,29.3,94,29.97,7.0,WNW,4.6,-,N/A,,Overcast,300,2012-12-29 12:55:00
7:15 AM,30.7,29.3,94,29.98,7.0,WNW,5.8,-,N/A,,Overcast,300,2012-12-29 13:15:00
7:35 AM,30.7,29.1,94,29.99,5.0,WNW,3.5,-,N/A,,Overcast,300,2012-12-29 13:35:00
7:55 AM,30.7,29.1,94,30.00,5.0,NW,3.5,-,N/A,,Overcast,310,2012-12-29 13:55:00
8:15 AM,30.7,28.9,93,30.01,5.0,NW,3.5,-,N/A,,Overcast,310,2012-12-29 14:15:00
8:35 AM,30.7,28.4,91,30.02,5.0,WNW,5.8,-,N/A,,Overcast,300,2012-12-29 14:35:00
8:55 AM,30.7,28.0,90,30.03,5.0,WNW,3.5,-,N/A,,Overcast,300,2012-12-29 14:55:00
9:15 AM,30.6,27.9,90,30.04,5.0,WNW,4.6,-,N/A,,Overcast,300,2012-12-29 15:15:00
9:35 AM,30.2,26.1,85,30.06,7.0,NW,5.8,-,N/A,,Overcast,310,2012-12-29 15:35:00
9:55 AM,30.2,25.2,82,30.07,10.0,NW,5.8,-,N/A,,Overcast,310,2012-12-29 15:55:00
10:15 AM,30.0,24.8,81,30.08,10.0,WNW,6.9,-,N/A,,Overcast,300,2012-12-29 16:15:00
10:35 AM,29.8,24.6,81,30.09,7.0,NW,11.5,-,N/A,,Overcast,310,2012-12-29 16:35:00
10:55 AM,30.2,25.9,84,30.08,7.0,WNW,11.5,16.1,N/A,Snow,Light Snow,300,2012-12-29 16:55:00
11:15 AM,30.2,25.3,82,30.08,7.0,WNW,12.7,17.3,N/A,,Overcast,300,2012-12-29 17:15:00
11:35 AM,30.0,25.3,83,30.08,5.0,WNW,12.7,19.6,N/A,Snow,Light Snow,300,2012-12-29 17:35:00
11:55 AM,30.0,25.7,84,30.08,5.0,WNW,17.3,-,N/A,Snow,Light Snow,300,2012-12-29 17:55:00
12:15 PM,29.7,25.5,85,30.09,5.0,WNW,12.7,-,N/A,,Overcast,300,2012-12-29 18:15:00
12:35 PM,29.5,24.4,81,30.09,7.0,WNW,17.3,24.2,N/A,,Overcast,300,2012-12-29 18:35:00
12:55 PM,29.3,23.7,80,30.10,7.0,WNW,15.0,20.7,N/A,,Overcast,300,2012-12-29 18:55:00
1:15 PM,28.8,21.7,75,30.10,7.0,WNW,18.4,23.0,N/A,,Overcast,300,2012-12-29 19:15:00
1:35 PM,28.0,22.8,81,30.11,3.0,WNW,11.5,21.9,N/A,Snow,Light Snow,300,2012-12-29 19:35:00
1:55 PM,27.5,23.0,83,30.12,3.0,WNW,16.1,21.9,N/A,Snow,Light Snow,300,2012-12-29 19:55:00
2:15 PM,27.3,22.8,83,30.13,5.0,WNW,15.0,-,N/A,Snow,Light Snow,300,2012-12-29 20:15:00
2:35 PM,27.0,20.8,78,30.14,7.0,NW,15.0,25.3,N/A,,Overcast,310,2012-12-29 20:35:00
2:55 PM,26.6,21.0,79,30.16,7.0,WNW,15.0,20.7,N/A,Snow,Light Snow,300,2012-12-29 20:55:00
3:15 PM,26.6,20.8,79,30.16,7.0,WNW,15.0,-,N/A,,Overcast,300,2012-12-29 21:15:00
3:35 PM,26.6,20.8,79,30.17,5.0,WNW,12.7,-,N/A,Snow,Light Snow,300,2012-12-29 21:35:00
3:55 PM,26.6,21.0,79,30.18,7.0,WNW,10.4,-,N/A,Snow,Light Snow,300,2012-12-29 21:55:00
4:15 PM,26.6,21.2,80,30.19,5.0,West,11.5,-,N/A,Snow,Light Snow,280,2012-12-29 22:15:00
4:35 PM,26.6,21.2,80,30.20,7.0,WNW,12.7,-,N/A,Snow,Light Snow,300,2012-12-29 22:35:00
4:55 PM,26.6,20.3,77,30.21,10.0,WNW,9.2,-,N/A,,Overcast,300,2012-12-29 22:55:00
5:15 PM,26.6,20.3,77,30.22,10.0,WNW,6.9,-,N/A,,Overcast,300,2012-12-29 23:15:00
5:35 PM,26.6,20.3,77,30.23,10.0,WNW,8.1,-,N/A,,Overcast,290,2012-12-29 23:35:00
5:55 PM,26.6,20.3,77,30.24,10.0,West,9.2,-,N/A,,Overcast,280,2012-12-29 23:55:00
6:15 PM,26.2,19.4,75,30.25,10.0,WNW,8.1,-,N/A,,Overcast,290,2012-12-30 00:15:00
6:35 PM,25.5,18.3,74,30.26,10.0,WNW,9.2,-,N/A,,Mostly Cloudy,290,2012-12-30 00:35:00
6:55 PM,25.2,18.1,75,30.28,10.0,West,8.1,-,N/A,,Mostly Cloudy,270,2012-12-30 00:55:00
7:15 PM,24.6,17.4,74,30.28,10.0,WNW,9.2,-,N/A,,Scattered Clouds,290,2012-12-30 01:15:00
7:35 PM,23.9,17.2,76,30.29,10.0,West,8.1,-,N/A,,Clear,280,2012-12-30 01:35:00
7:55 PM,23.0,16.9,77,30.30,10.0,West,6.9,-,N/A,,Clear,270,2012-12-30 01:55:00
8:15 PM,21.9,16.7,80,30.31,10.0,West,5.8,-,N/A,,Clear,260,2012-12-30 02:15:00
8:35 PM,20.7,15.8,81,30.31,10.0,West,4.6,-,N/A,,Clear,260,2012-12-30 02:35:00
8:55 PM,19.9,15.8,84,30.32,10.0,West,5.8,-,N/A,,Clear,260,2012-12-30 02:55:00
9:15 PM,20.7,16.2,83,30.32,10.0,West,9.2,-,N/A,,Clear,280,2012-12-30 03:15:00
9:35 PM,20.8,15.6,80,30.34,10.0,West,6.9,-,N/A,,Clear,260,2012-12-30 03:35:00
9:55 PM,18.1,13.8,83,30.34,10.0,WSW,8.1,-,N/A,,Clear,240,2012-12-30 03:55:00
10:15 PM,18.1,14.5,86,30.35,10.0,WSW,4.6,-,N/A,,Clear,250,2012-12-30 04:15:00
10:35 PM,18.1,15.1,88,30.35,10.0,West,5.8,-,N/A,,Clear,260,2012-12-30 04:35:00
10:55 PM,17.1,14.4,89,30.35,10.0,WSW,6.9,-,N/A,,Clear,250,2012-12-30 04:55:00
11:15 PM,16.9,14.5,91,30.35,10.0,WSW,5.8,-,N/A,,Clear,240,2012-12-30 05:15:00
11:35 PM,14.9,13.1,93,30.35,7.0,WSW,5.8,-,N/A,,Clear,250,2012-12-30 05:35:00
11:55 PM,14.0,13.1,96,30.34,7.0,WSW,3.5,-,N/A,,Clear,240,2012-12-30 05:55:00